Find Yaogan 30 hao 08 zu 02 xing

NORAD ID: 48424 Int'l Des: 2021-039 Owner: ZLZB Country: CN Constellation: yaogan operational
LEOCIRCULAR

Live Position

Loading 3D Globe...

About Yaogan 30 hao 08 zu 02 xing

Description loading...

Upcoming Passes

Passes for default location (London). Set your location on the main map for personalized predictions.

Altitude History

Loading altitude history...

Two-Line Element Set

1 48424U 21039B 26109.20356316 .00001933 00000-0 14503-3 0 9993
2 48424 34.9964 30.4840 0003790 15.4297 344.6526 15.02453354270668
Epoch: Apr 19, 2026 • Age: 16 hours

Current Status

Altitude 555.5 km
Velocity 7.59 km/s
Sub-Earth Point 21.86°N, 102.02°W
Launch Date May 6, 2021
Age 4.9 years
Type military

Technical Details

Classification Payload
Mass 500.00 kg
Dry Mass 500.00 kg
Total Mass 500.00 kg
Length 0.50 m
Diameter 0.50 m
Span 1.00 m
Shape Box + 2 Pan
Manufacturer SECM
Phase Status In Orbit
Owner/State ZLZB/CN

Most Searched